BAW4LV KLAS-EGLL

Flight info

Callsign BAW4LV
Flight time N/A
Altitude 35000
Route RATPK3 FRNCK DCT EKR DCT MBW DCT DPR DCT GABOV DCT RIONA DCT 53N085W/N0499F370 DCT HELMO DCT PELSI/M085F370 DCT RADUN DCT 61N050W 61N040W 60N030W 58N020W DCT SUNOT/N0484F370 DCT KESIX DCT MIMKU DCT KELLY L10 WAL UY53 NUGRA
Aircraft A35K/H-SDE2E3GHIJ3J4J5LM1ORWXY/LB1D1

Departure

Time 2026-05-04 02:23
Airport Harry Reid International Airport (KLAS)

Arrival

Time N/A
Airport London Heathrow Airport (EGLL)
Time Latitude Longitude Altitude Speed Heading
2026-05-04 02:06 36.08533 -115.13286 2098 ft 0 kts 360°
2026-05-04 02:12 36.08532 -115.13286 2098 ft 1 kts 360°
2026-05-04 02:12 36.08508 -115.13286 2099 ft 4 kts 360°
2026-05-04 02:12 36.08486 -115.13286 2099 ft 4 kts
2026-05-04 02:12 36.08463 -115.13297 2098 ft 4 kts 40°
2026-05-04 02:13 36.08446 -115.13317 2099 ft 4 kts 48°
2026-05-04 02:13 36.08428 -115.13342 2100 ft 4 kts 48°
2026-05-04 02:13 36.08410 -115.13366 2101 ft 3 kts 48°
2026-05-04 02:13 36.08395 -115.13390 2101 ft 4 kts 68°
2026-05-04 02:14 36.08394 -115.13417 2101 ft 4 kts 130°
2026-05-04 02:14 36.08411 -115.13439 2100 ft 4 kts 135°
2026-05-04 02:14 36.08421 -115.13452 2099 ft 0 kts 135°
2026-05-04 02:15 36.08420 -115.13450 2099 ft 1 kts 135°
2026-05-04 02:16 36.08393 -115.13417 2101 ft 9 kts 135°
2026-05-04 02:16 36.08344 -115.13355 2098 ft 11 kts 135°
2026-05-04 02:16 36.08280 -115.13297 2097 ft 12 kts 162°
2026-05-04 02:16 36.08176 -115.13291 2094 ft 16 kts 180°
2026-05-04 02:17 36.08060 -115.13291 2094 ft 16 kts 180°
2026-05-04 02:17 36.07952 -115.13291 2094 ft 12 kts 180°
2026-05-04 02:17 36.07907 -115.13291 2094 ft 0 kts 180°
2026-05-04 02:19 36.07892 -115.13291 2094 ft 6 kts 180°
2026-05-04 02:19 36.07841 -115.13263 2093 ft 10 kts 127°
2026-05-04 02:19 36.07828 -115.13167 2090 ft 16 kts 91°
2026-05-04 02:20 36.07828 -115.13008 2081 ft 21 kts 90°
2026-05-04 02:20 36.07829 -115.12813 2074 ft 19 kts 90°
2026-05-04 02:20 36.07829 -115.12698 2071 ft 20 kts 90°
2026-05-04 02:20 36.07829 -115.12523 2065 ft 19 kts 90°
2026-05-04 02:21 36.07829 -115.12352 2061 ft 20 kts 90°
2026-05-04 02:21 36.07813 -115.12250 2058 ft 13 kts 117°
2026-05-04 02:21 36.07754 -115.12155 2055 ft 14 kts 134°
2026-05-04 02:21 36.07681 -115.12123 2055 ft 8 kts 180°
2026-05-04 02:22 36.07648 -115.12152 2055 ft 4 kts 245°
2026-05-04 02:22 36.07643 -115.12228 2056 ft 19 kts 270°
2026-05-04 02:22 36.07640 -115.12634 2071 ft 77 kts 270°
2026-05-04 02:22 36.07641 -115.13527 2096 ft 130 kts 269°
2026-05-04 02:23 36.07643 -115.14851 2116 ft 176 kts 271°
2026-05-04 02:23 36.07646 -115.16322 2871 ft 164 kts 263°
2026-05-04 02:23 36.07627 -115.17770 3275 ft 178 kts 261°
2026-05-04 02:23 36.07584 -115.19349 3712 ft 186 kts 261°
2026-05-04 02:24 36.07577 -115.21017 3927 ft 202 kts 265°
2026-05-04 02:24 36.07595 -115.22832 4103 ft 221 kts 265°
2026-05-04 02:24 36.07626 -115.24773 4362 ft 237 kts 268°
2026-05-04 02:24 36.08051 -115.26794 4783 ft 252 kts 292°
2026-05-04 02:25 36.09247 -115.28425 5297 ft 267 kts 323°
2026-05-04 02:25 36.11005 -115.29242 5922 ft 272 kts 344°
2026-05-04 02:25 36.12856 -115.29697 6562 ft 273 kts 351°
2026-05-04 02:25 36.14764 -115.29488 7014 ft 283 kts 21°
2026-05-04 02:26 36.16376 -115.28083 7400 ft 291 kts 54°
2026-05-04 02:26 36.17426 -115.25910 7852 ft 298 kts 69°
2026-05-04 02:26 36.18188 -115.23516 8528 ft 300 kts 73°
2026-05-04 02:26 36.18916 -115.21080 9236 ft 303 kts 73°
2026-05-04 02:27 36.19530 -115.18586 9884 ft 303 kts 85°
2026-05-04 02:27 36.19678 -115.15982 10404 ft 309 kts 93°
2026-05-04 02:27 36.19669 -115.13248 10694 ft 325 kts 95°
2026-05-04 02:27 36.19645 -115.10379 10935 ft 341 kts 94°
2026-05-04 02:28 36.19630 -115.07374 11222 ft 357 kts 94°
2026-05-04 02:28 36.19622 -115.04231 11481 ft 372 kts 93°
2026-05-04 02:28 36.19618 -115.00967 11743 ft 386 kts 93°
2026-05-04 02:28 36.19616 -114.97570 11988 ft 402 kts 94°
2026-05-04 02:29 36.19613 -114.94093 12516 ft 405 kts 93°
2026-05-04 02:29 36.19751 -114.90599 13136 ft 410 kts 84°
2026-05-04 02:29 36.20572 -114.87190 13667 ft 419 kts 66°
2026-05-04 02:29 36.22150 -114.84198 14203 ft 424 kts 53°
2026-05-04 02:30 36.24023 -114.81366 14732 ft 426 kts 51°
2026-05-04 02:30 36.25940 -114.78539 15263 ft 429 kts 51°
2026-05-04 02:30 36.27855 -114.75696 15865 ft 431 kts 52°
2026-05-04 02:30 36.29776 -114.72825 16449 ft 434 kts 52°
2026-05-04 02:31 36.31705 -114.69928 17002 ft 436 kts 52°
2026-05-04 02:31 36.33643 -114.67015 17496 ft 440 kts 52°
2026-05-04 02:31 36.35594 -114.64077 18043 ft 443 kts 52°
2026-05-04 02:31 36.37773 -114.61353 18441 ft 448 kts 41°
2026-05-04 02:32 36.40224 -114.58934 18596 ft 451 kts 38°
2026-05-04 02:32 36.42735 -114.56575 18792 ft 454 kts 37°
2026-05-04 02:32 36.45265 -114.54199 19159 ft 458 kts 37°
2026-05-04 02:32 36.47823 -114.51789 19582 ft 462 kts 37°
2026-05-04 02:33 36.50394 -114.49357 20044 ft 466 kts 36°
2026-05-04 02:33 36.52977 -114.46911 20606 ft 466 kts 37°
2026-05-04 02:33 36.55648 -114.44613 21133 ft 469 kts 32°
2026-05-04 02:33 36.57484 -114.43167 21398 ft 472 kts 31°
2026-05-04 02:34 36.60289 -114.41000 21837 ft 477 kts 31°
2026-05-04 02:34 36.63124 -114.38814 22288 ft 481 kts 30°
2026-05-04 02:34 36.65987 -114.36602 22673 ft 487 kts 30°
2026-05-04 02:34 36.68879 -114.34363 23102 ft 492 kts 30°
2026-05-04 02:35 36.71791 -114.32104 23489 ft 495 kts 30°
2026-05-04 02:35 36.75689 -114.29076 23974 ft 501 kts 29°
2026-05-04 02:35 36.77695 -114.27516 24217 ft 504 kts 29°
2026-05-04 02:35 36.80668 -114.25201 24772 ft 503 kts 29°
2026-05-04 02:36 36.83643 -114.22881 25150 ft 507 kts 28°
2026-05-04 02:36 36.86653 -114.20534 25446 ft 512 kts 28°
2026-05-04 02:36 36.89687 -114.18166 25771 ft 517 kts 28°
2026-05-04 02:36 36.92748 -114.15775 26112 ft 521 kts 28°
2026-05-04 02:37 36.95831 -114.13363 26426 ft 525 kts 27°
2026-05-04 02:37 36.98942 -114.10927 26764 ft 529 kts 27°
2026-05-04 02:37 37.02073 -114.08473 27077 ft 533 kts 27°
2026-05-04 02:37 37.05189 -114.06028 27415 ft 536 kts 27°
2026-05-04 02:38 37.08352 -114.03543 27872 ft 537 kts 27°
2026-05-04 02:38 37.11528 -114.01047 28121 ft 541 kts 27°
2026-05-04 02:38 37.14734 -113.98526 28415 ft 545 kts 27°
2026-05-04 02:38 37.17949 -113.95993 28706 ft 549 kts 26°
2026-05-04 02:39 37.21199 -113.93430 28996 ft 553 kts 26°
2026-05-04 02:39 37.24467 -113.90848 29274 ft 557 kts 26°
2026-05-04 02:39 37.27752 -113.88250 29618 ft 558 kts 26°
2026-05-04 02:39 37.31040 -113.85649 29999 ft 559 kts 26°
2026-05-04 02:40 37.34317 -113.83050 30506 ft 555 kts 27°
2026-05-04 02:40 37.37564 -113.80474 30973 ft 552 kts 26°
2026-05-04 02:40 37.40821 -113.77894 31201 ft 554 kts 26°
2026-05-04 02:40 37.44085 -113.75305 31539 ft 554 kts 26°
2026-05-04 02:41 37.47340 -113.72715 31919 ft 553 kts 26°
2026-05-04 02:41 37.50591 -113.70126 32223 ft 553 kts 26°
2026-05-04 02:41 37.53838 -113.67535 32556 ft 552 kts 25°
2026-05-04 02:41 37.57043 -113.64978 32865 ft 552 kts 25°
2026-05-04 02:42 37.60284 -113.62390 33293 ft 549 kts 26°
2026-05-04 02:42 37.63496 -113.59811 33689 ft 548 kts 26°
2026-05-04 02:42 37.66581 -113.56905 33872 ft 559 kts 36°
2026-05-04 02:42 37.69258 -113.53295 34026 ft 569 kts 49°
2026-05-04 02:43 37.71479 -113.49127 34232 ft 573 kts 54°
2026-05-04 02:43 37.73544 -113.44822 34461 ft 574 kts 57°
2026-05-04 02:43 37.75542 -113.40449 34714 ft 574 kts 57°
2026-05-04 02:43 37.77511 -113.36053 34906 ft 575 kts 58°
2026-05-04 02:44 37.81481 -113.27205 34955 ft 580 kts 57°
2026-05-04 02:44 37.85495 -113.18364 34965 ft 579 kts 57°
2026-05-04 02:45 37.89528 -113.09524 34952 ft 579 kts 57°
2026-05-04 02:45 37.93541 -113.00719 34941 ft 575 kts 58°
2026-05-04 02:46 37.97500 -112.91993 34870 ft 569 kts 58°
2026-05-04 02:46 38.01440 -112.83289 34879 ft 569 kts 58°
2026-05-04 02:47 38.05375 -112.74574 34879 ft 568 kts 58°
2026-05-04 02:47 38.09286 -112.65889 34894 ft 566 kts 59°
2026-05-04 02:48 38.13155 -112.57265 34905 ft 566 kts 59°
2026-05-04 02:48 38.17046 -112.48570 34894 ft 565 kts 59°
2026-05-04 02:49 38.20930 -112.39877 34907 ft 565 kts 59°
2026-05-04 02:49 38.24802 -112.31177 34908 ft 565 kts 59°
2026-05-04 02:50 38.28670 -112.22466 34909 ft 566 kts 59°
2026-05-04 02:50 38.32533 -112.13740 34916 ft 565 kts 59°
2026-05-04 02:51 38.36364 -112.05064 34905 ft 558 kts 59°
2026-05-04 02:51 38.40159 -111.96459 34904 ft 556 kts 60°
2026-05-04 02:52 38.43941 -111.87846 34907 ft 556 kts 60°
2026-05-04 02:52 38.47715 -111.79223 34903 ft 556 kts 60°
2026-05-04 02:53 38.51472 -111.70618 34898 ft 554 kts 60°
2026-05-04 02:53 38.55193 -111.62076 34899 ft 554 kts 60°
2026-05-04 02:54 38.58931 -111.53472 34897 ft 554 kts 60°
2026-05-04 02:54 38.62664 -111.44863 34895 ft 554 kts 60°
2026-05-04 02:55 38.68250 -111.31920 34892 ft 553 kts 60°
2026-05-04 02:56 38.71965 -111.23288 34876 ft 554 kts 60°
2026-05-04 02:56 38.75677 -111.14638 34877 ft 554 kts 60°
2026-05-04 02:57 38.79381 -111.05983 34880 ft 553 kts 60°
2026-05-04 02:57 38.83072 -110.97335 34866 ft 553 kts 61°
2026-05-04 02:58 38.86759 -110.88668 34869 ft 553 kts 61°
2026-05-04 02:58 38.90419 -110.80054 34871 ft 553 kts 61°
2026-05-04 02:59 38.94094 -110.71374 34848 ft 553 kts 61°
2026-05-04 02:59 38.97758 -110.62689 34852 ft 553 kts 61°
2026-05-04 03:00 39.01413 -110.53982 34834 ft 553 kts 61°
2026-05-04 03:00 39.05065 -110.45269 34818 ft 554 kts 61°
2026-05-04 03:01 39.08728 -110.36526 34828 ft 555 kts 61°
2026-05-04 03:01 39.12373 -110.27806 34805 ft 550 kts 61°
2026-05-04 03:02 39.15981 -110.19143 34806 ft 548 kts 61°
2026-05-04 03:02 39.19579 -110.10475 34802 ft 548 kts 61°
2026-05-04 03:03 39.23157 -110.01807 34810 ft 548 kts 61°
2026-05-04 03:03 39.26737 -109.93127 34837 ft 548 kts 61°
2026-05-04 03:04 39.30316 -109.84444 34837 ft 547 kts 61°
2026-05-04 03:04 39.33884 -109.75754 34836 ft 548 kts 61°
2026-05-04 03:05 39.37446 -109.67043 34833 ft 548 kts 61°
2026-05-04 03:05 39.41011 -109.58329 34846 ft 549 kts 61°
2026-05-04 03:06 39.44563 -109.49597 34830 ft 549 kts 61°
2026-05-04 03:06 39.48100 -109.40855 34845 ft 547 kts 61°
2026-05-04 03:07 39.51592 -109.32219 34824 ft 537 kts 61°
2026-05-04 03:07 39.55046 -109.23666 34829 ft 536 kts 61°
2026-05-04 03:08 39.58492 -109.15114 34827 ft 535 kts 61°
2026-05-04 03:08 39.61926 -109.06552 34822 ft 535 kts 61°
2026-05-04 03:09 39.65322 -108.98051 34829 ft 534 kts 61°
2026-05-04 03:09 39.68738 -108.89492 34818 ft 534 kts 61°
2026-05-04 03:10 39.72145 -108.80930 34837 ft 534 kts 61°
2026-05-04 03:10 39.75547 -108.72352 34836 ft 532 kts 61°
2026-05-04 03:11 39.78927 -108.63802 34843 ft 531 kts 61°
2026-05-04 03:11 39.82300 -108.55250 34850 ft 531 kts 61°
2026-05-04 03:12 39.85664 -108.46696 34857 ft 531 kts 61°
2026-05-04 03:12 39.89007 -108.38170 34860 ft 527 kts 61°
2026-05-04 03:13 39.92334 -108.29664 34871 ft 527 kts 61°
2026-05-04 03:13 39.95656 -108.21143 34918 ft 527 kts 61°
2026-05-04 03:14 39.98970 -108.12619 34965 ft 527 kts 61°
2026-05-04 03:14 40.02257 -108.04145 35007 ft 527 kts 62°
2026-05-04 03:15 40.05697 -107.95707 35029 ft 525 kts 54°
2026-05-04 03:15 40.07903 -107.91928 34877 ft 521 kts 45°
2026-05-04 03:15 40.10504 -107.88650 34879 ft 518 kts 38°
2026-05-04 03:16 40.16041 -107.82640 34896 ft 517 kts 35°
2026-05-04 03:16 40.21679 -107.76817 34907 ft 515 kts 35°
2026-05-04 03:17 40.27295 -107.70992 34948 ft 513 kts 35°
2026-05-04 03:17 40.32866 -107.65152 34975 ft 512 kts 35°
2026-05-04 03:18 40.38416 -107.59303 35001 ft 512 kts 36°
2026-05-04 03:18 40.43968 -107.53432 35018 ft 512 kts 36°
2026-05-04 03:19 40.49505 -107.47568 35008 ft 511 kts 36°
2026-05-04 03:19 40.55030 -107.41704 35007 ft 511 kts 36°
2026-05-04 03:20 40.60520 -107.35866 35018 ft 510 kts 36°
2026-05-04 03:20 40.66039 -107.29984 35003 ft 510 kts 36°
2026-05-04 03:21 40.71554 -107.24092 34980 ft 509 kts 36°
2026-05-04 03:21 40.77060 -107.18198 34956 ft 509 kts 36°
2026-05-04 03:22 40.81631 -107.13296 34926 ft 509 kts 36°
2026-05-04 03:22 40.87127 -107.07389 34921 ft 509 kts 36°
2026-05-04 03:23 40.92616 -107.01476 34928 ft 509 kts 35°
2026-05-04 03:23 40.98094 -106.95562 34917 ft 507 kts 35°
2026-05-04 03:24 41.03560 -106.89649 34904 ft 507 kts 35°
2026-05-04 03:24 41.09020 -106.83730 34906 ft 507 kts 36°
2026-05-04 03:25 41.14477 -106.77799 34923 ft 507 kts 36°
2026-05-04 03:25 41.19934 -106.71853 34951 ft 507 kts 36°
2026-05-04 03:26 41.25374 -106.65915 34958 ft 506 kts 35°
2026-05-04 03:26 41.30812 -106.59966 34960 ft 506 kts 35°
2026-05-04 03:27 41.36212 -106.54046 34942 ft 506 kts 35°
2026-05-04 03:27 41.41642 -106.48080 34928 ft 506 kts 36°
2026-05-04 03:28 41.47073 -106.42095 34889 ft 506 kts 35°
2026-05-04 03:28 41.52498 -106.36107 34845 ft 506 kts 35°
2026-05-04 03:29 41.57909 -106.30119 34845 ft 505 kts 35°
2026-05-04 03:29 41.63316 -106.24125 34836 ft 504 kts 35°
2026-05-04 03:30 41.68712 -106.18129 34828 ft 504 kts 35°
2026-05-04 03:30 41.74109 -106.12119 34832 ft 505 kts 35°
2026-05-04 03:31 41.79504 -106.06098 34826 ft 505 kts 35°
2026-05-04 03:31 41.84891 -106.00070 34822 ft 504 kts 35°
2026-05-04 03:32 41.90119 -105.93848 34832 ft 506 kts 38°
2026-05-04 03:32 41.95247 -105.87393 34827 ft 505 kts 38°
2026-05-04 03:33 42.00384 -105.80946 34821 ft 504 kts 38°
2026-05-04 03:33 42.05539 -105.74536 34828 ft 504 kts 38°
2026-05-04 03:34 42.10700 -105.68132 34829 ft 504 kts 38°
2026-05-04 03:34 42.15858 -105.61720 34838 ft 504 kts 38°
2026-05-04 03:35 42.20995 -105.55313 34833 ft 502 kts 38°
2026-05-04 03:35 42.26118 -105.48909 34844 ft 502 kts 38°
2026-05-04 03:36 42.31239 -105.42494 34839 ft 502 kts 38°
2026-05-04 03:36 42.36356 -105.36067 34839 ft 502 kts 39°
2026-05-04 03:37 42.41431 -105.29681 34852 ft 501 kts 39°
2026-05-04 03:37 42.46516 -105.23265 34856 ft 498 kts 39°
2026-05-04 03:38 42.51578 -105.16860 34879 ft 497 kts 39°
2026-05-04 03:38 42.56633 -105.10451 34878 ft 497 kts 39°
2026-05-04 03:39 42.61683 -105.04035 34876 ft 497 kts 39°
2026-05-04 03:39 42.66726 -104.97612 34870 ft 495 kts 40°
2026-05-04 03:40 42.71704 -104.91255 34869 ft 494 kts 40°
2026-05-04 03:40 42.76699 -104.84865 34862 ft 493 kts 40°
2026-05-04 03:41 42.81690 -104.78466 34857 ft 492 kts 40°
2026-05-04 03:41 42.86677 -104.72055 34854 ft 492 kts 40°
2026-05-04 03:42 42.91654 -104.65644 34847 ft 490 kts 41°
2026-05-04 03:42 42.96602 -104.59253 34856 ft 489 kts 41°
2026-05-04 03:43 43.01543 -104.52857 34848 ft 489 kts 41°
2026-05-04 03:43 43.06479 -104.46453 34856 ft 489 kts 41°
2026-05-04 03:44 43.11418 -104.40029 34843 ft 489 kts 41°
2026-05-04 03:44 43.16302 -104.33662 34848 ft 487 kts 41°
2026-05-04 03:45 43.21208 -104.27250 34838 ft 486 kts 41°
2026-05-04 03:45 43.26102 -104.20842 34848 ft 486 kts 40°
2026-05-04 03:46 43.30991 -104.14423 34832 ft 486 kts 40°
2026-05-04 03:46 43.35883 -104.07987 34828 ft 486 kts 40°
2026-05-04 03:47 43.40761 -104.01553 34828 ft 486 kts 40°
2026-05-04 03:47 43.45630 -103.95115 34823 ft 486 kts 40°
2026-05-04 03:48 43.50499 -103.88664 34825 ft 486 kts 40°
2026-05-04 03:48 43.55331 -103.82245 34829 ft 485 kts 40°
2026-05-04 03:49 43.60188 -103.75777 34908 ft 485 kts 40°
2026-05-04 03:49 43.65035 -103.69309 34920 ft 484 kts 40°
2026-05-04 03:50 43.69875 -103.62836 34919 ft 484 kts 41°
2026-05-04 03:50 43.74713 -103.56349 34928 ft 484 kts 41°
2026-05-04 03:51 43.79541 -103.49859 34917 ft 484 kts 41°
2026-05-04 03:51 43.84370 -103.43353 34906 ft 484 kts 41°
2026-05-04 03:52 43.89203 -103.36827 34866 ft 485 kts 41°
2026-05-04 03:52 43.94026 -103.30298 34848 ft 485 kts 41°
2026-05-04 03:53 43.98849 -103.23754 34808 ft 485 kts 41°
2026-05-04 03:53 44.02855 -103.18305 34811 ft 485 kts 41°